Location: Camp Crooked Creek
(37.9149°N, 85.6607°W)
Time: 01:51:59
(UTC-05:00)

Amateur Radio Satellites - All Passes

Search period start: 17 January 2017 01:21
Search period end: 18 January 2017 01:21
Location: Camp Crooked Creek, 37.9149°N, 85.6607°W

Satellite Date Start Highest point End Downlink Frequencies (MHz)
Time Altitude Azimuth
JAS-2 17 Jan 01:22:50 01:28:12 24° 296° (WNW) 01:33:55 435.910
DX 1 17 Jan 01:23:49 01:27:26 25° 264° (W) 01:31:03 434.975-435.025
AIST 1 17 Jan 01:24:22 01:27:49 23° 75° (ENE) 01:31:13
DUCHIFAT 1 17 Jan 01:26:20 01:29:42 24° 291° (WNW) 01:33:04 145.980
ITUPSAT 1 17 Jan 01:27:39 01:30:20 15° 64° (ENE) 01:33:00 437.325
NANOSAT C BR1 17 Jan 01:29:55 01:33:01 20° 292° (WNW) 01:36:07 145.865
UKube-1 17 Jan 01:31:00 01:34:42 28° 263° (W) 01:38:27 .
Cosmos 2491 17 Jan 01:31:46 01:37:10 18° 79° (E) 01:42:34 435.465 / 435.565
SPROUT 17 Jan 01:40:10 01:41:25 11° 269° (W) 01:42:40 437.525
TISAT 1 17 Jan 01:43:32 01:47:42 70° 259° (W) 01:51:52 437.305
BEESAT 17 Jan 02:03:10 02:07:26 35° 70° (ENE) 02:11:45 436.000
SWISSCUBE 17 Jan 02:04:12 02:08:37 40° 71° (ENE) 02:13:03 437.505
PCSat 17 Jan 02:08:06 02:13:31 90° 138° (SE) 02:18:58 145.827
BUGSAT 1 17 Jan 02:18:11 02:20:48 17° 293° (WNW) 02:23:27 437.445
MOZHAYETS 4 17 Jan 02:35:24 02:38:47 21° 67° (ENE) 02:42:11
RS-15 17 Jan 02:36:00 02:47:07 42° 316° (NW) 02:58:41 29.354- 29.394
Cosmos 2504 17 Jan 02:36:21 02:43:30 47° 77° (ENE) 02:50:21 435.465 / 435.565
YUBILEINY 17 Jan 02:39:44 02:48:37 87° 264° (W) 02:57:23 435.215
Gurwin Techsat 1B 17 Jan 02:41:22 02:46:42 78° 103° (ESE) 02:52:00 435.225
BEESAT 3 17 Jan 02:42:53 02:46:50 60° 57° (ENE) 02:50:47 437.485
M-CUBED/EXP-1 PRIME 17 Jan 02:51:32 02:55:10 25° 65° (ENE) 02:58:39 437.505
Oscar 19 17 Jan 03:00:02 03:04:45 36° 291° (WNW) 03:09:26 437.125/150
AIST 1 17 Jan 03:01:52 03:05:17 24° 271° (W) 03:08:43
ITUPSAT 1 17 Jan 03:03:01 03:07:40 55° 259° (W) 03:12:21 437.325
AO-7 17 Jan 03:14:50 03:21:33 26° 95° (E) 03:28:12 29.400- 29.500
BEESAT 2 17 Jan 03:18:47 03:22:49 63° 58° (ENE) 03:26:47 435.950
Cosmos 2491 17 Jan 03:24:07 03:32:50 82° 277° (W) 03:41:36 435.465 / 435.565
AUBIESAT-1 17 Jan 03:30:58 03:35:16 53° 70° (ENE) 03:39:20 437.475
ITAMSAT 1 17 Jan 03:33:46 03:38:47 47° 100° (E) 03:43:47 435.822/435.867
BEESAT 17 Jan 03:41:38 03:45:16 22° 265° (W) 03:48:55 436.000
SWISSCUBE 17 Jan 03:43:12 03:46:32 19° 266° (W) 03:49:53 437.505
KKS-1 17 Jan 03:43:21 03:47:25 36° 71° (ENE) 03:51:29 437.445
PCSat 17 Jan 03:54:47 03:57:40 14° 316° (NW) 04:00:34 145.827
MOZHAYETS 4 17 Jan 04:11:32 04:15:41 35° 263° (W) 04:19:54
Gurwin Techsat 1B 17 Jan 04:23:35 04:25:56 13° 299° (WNW) 04:28:17 435.225
BEESAT 3 17 Jan 04:23:37 04:23:55 10° 253° (WSW) 04:24:11 437.485
CUSAT 1 17 Jan 04:24:16 04:28:45 85° 282° (WNW) 04:34:45 437.405
M-CUBED/EXP-1 PRIME 17 Jan 04:25:31 04:29:28 29° 257° (WSW) 04:33:15 437.505
PHONESAT 2.4 17 Jan 04:26:00 04:28:18 67° 159° (SSE) 04:30:36 2401.200-2431.200
Cosmos 2504 17 Jan 04:30:26 04:36:26 28° 276° (W) 04:42:15 435.465 / 435.565
DANDE 17 Jan 04:37:22 04:40:09 24° 87° (E) 04:43:34 436.750
YUBILEINY 17 Jan 04:39:30 04:43:59 15° 283° (WNW) 04:48:29 435.215
AIST 2 17 Jan 04:42:52 04:44:46 13° 44° (NE) 04:46:39 435.215
CUBESAT XI-V 17 Jan 04:45:55 04:50:35 77° 76° (ENE) 04:55:19 437.345
STARS 17 Jan 04:47:14 04:51:38 84° 73° (ENE) 04:56:02 437.465
RS-15 17 Jan 04:56:27 05:04:26 19° 349° (NNW) 05:12:31 29.354- 29.394
AO-7 17 Jan 05:06:32 05:14:47 64° 292° (WNW) 05:22:57 29.400- 29.500
AUBIESAT-1 17 Jan 05:07:49 05:09:48 13° 262° (W) 05:11:45 437.475
ITAMSAT 1 17 Jan 05:14:10 05:17:52 20° 295° (WNW) 05:21:36 435.822/435.867
KKS-1 17 Jan 05:20:55 05:24:03 19° 266° (W) 05:27:12 437.445
Cosmos 2491 17 Jan 05:26:32 05:31:06 15° 298° (WNW) 05:35:42 435.465 / 435.565
BRITE-PL 17 Jan 05:43:38 05:48:40 81° 102° (ESE) 05:53:15 437.365/2234.400
CUTE-I 17 Jan 05:56:29 05:59:56 17° 93° (E) 06:03:21 437.470
LilacSat-2 17 Jan 05:59:21 06:01:47 16° 93° (E) 06:04:14 437.200
PHONESAT 2.4 17 Jan 06:00:21 06:02:34 40° 356° (N) 06:04:48 2401.200-2431.200
ISS 17 Jan 06:03:17 06:06:07 27° 31° (NNE) 06:08:57 145.825
GOMX 1 17 Jan 06:07:41 06:12:05 52° 99° (E) 06:16:14 467.674
NOAA 18 17 Jan 06:12:28 06:14:37 12° 91° (E) 06:16:45 137.9125
AIST 2 17 Jan 06:19:29 06:23:45 75° 240° (WSW) 06:27:57 435.215
DANDE 17 Jan 06:20:34 06:22:58 17° 295° (WNW) 06:25:46 436.750
HORYU 2 17 Jan 06:22:02 06:26:30 87° 284° (WNW) 06:30:57 437.375
STRAND 1 17 Jan 06:35:27 06:39:59 33° 69° (ENE) 06:44:31 437.568
Cubesat XI-IV 17 Jan 06:37:08 06:42:11 42° 99° (E) 06:47:13 437.490
O/OREOS (USA 219) 17 Jan 06:50:41 06:54:25 26° 103° (ESE) 06:58:10 437.305
HO-68 17 Jan 06:56:33 07:00:08 14° 90° (E) 07:03:41 435.675
NOAA 15 17 Jan 06:59:50 07:05:11 75° 103° (ESE) 07:10:28 137.62
Cosmos 2499 17 Jan 07:00:27 07:06:53 34° 74° (ENE) 07:13:10 435.465 / 435.565
AO-7 17 Jan 07:02:20 07:05:54 13° 312° (NW) 07:09:28 29.400- 29.500
DOVE 4 17 Jan 07:06:16 07:10:31 90° 230° (SW) 07:14:38 437.250
CANX-2 17 Jan 07:08:53 07:10:37 12° 91° (E) 07:12:21 2200.000
RS-15 17 Jan 07:14:04 07:23:30 24° 26° (NNE) 07:32:47 29.354- 29.394
BRITE-PL 17 Jan 07:25:12 07:26:15 11° 300° (WNW) 07:27:18 437.365/2234.400
CINEMA 3 17 Jan 07:25:42 07:29:22 29° 97° (E) 07:33:06 145.822/145.860
GONETS M04 17 Jan 07:26:06 07:34:35 48° 77° (ENE) 07:43:00
SEEDS 17 Jan 07:28:30 07:29:44 11° 91° (E) 07:30:59 437.485
LilacSat-2 17 Jan 07:32:42 07:36:07 31° 288° (WNW) 07:39:33 437.200
PHONESAT 2.4 17 Jan 07:34:38 07:36:56 64° 13° (NNE) 07:39:15 2401.200-2431.200
CUTE-I 17 Jan 07:35:04 07:40:15 54° 288° (WNW) 07:45:27 437.470
ISS 17 Jan 07:39:42 07:42:35 30° 227° (SW) 07:45:28 145.825
GOMX 1 17 Jan 07:47:34 07:49:37 13° 297° (WNW) 07:51:37 467.674
NOAA 18 17 Jan 07:50:21 07:55:48 76° 285° (WNW) 08:01:13 137.9125
AAUSAT CUBESAT 2 17 Jan 07:56:25 07:57:43 11° 91° (E) 07:59:01 437.432
CUTE 1.7 + AOD 2 17 Jan 08:14:03 08:18:19 62° 101° (E) 08:22:32 437.475
STRAND 1 17 Jan 08:14:57 08:19:08 26° 264° (W) 08:23:22 437.568
Cubesat XI-IV 17 Jan 08:17:51 08:21:57 23° 295° (WNW) 08:26:04 437.490
O/OREOS (USA 219) 17 Jan 08:29:59 08:33:44 26° 299° (WNW) 08:37:30 437.305
PRISM 17 Jan 08:30:21 08:33:43 24° 69° (ENE) 08:37:05 437.425
HO-68 17 Jan 08:41:25 08:48:39 89° 285° (WNW) 08:55:48 435.675
NOAA 15 17 Jan 08:41:43 08:44:16 14° 299° (WNW) 08:46:50 137.62
CANX-2 17 Jan 08:42:33 08:46:44 51° 286° (WNW) 08:50:53 2200.000
CUBEBUG 2 17 Jan 08:45:22 08:49:37 56° 100° (E) 08:53:57 437.445
Cosmos 2499 17 Jan 08:53:33 08:59:56 36° 272° (W) 09:06:14 435.465 / 435.565
Oscar 11 17 Jan 08:57:01 09:00:29 23° 95° (E) 09:03:55 145.826/435.025
SEEDS 17 Jan 09:01:34 09:05:44 54° 286° (WNW) 09:09:52 437.485
CINEMA 3 17 Jan 09:03:17 09:06:20 20° 291° (WNW) 09:09:25 145.822/145.860
PHONESAT 2.4 17 Jan 09:09:07 09:10:59 21° 208° (SSW) 09:12:52 2401.200-2431.200
SO-50 17 Jan 09:09:33 09:14:16 74° 119° (ESE) 09:18:57 436.795
COMPASS 1 17 Jan 09:14:11 09:18:20 60° 285° (WNW) 09:22:28 437.405
UNISAT 6 17 Jan 09:21:32 09:25:04 25° 70° (ENE) 09:28:34 437.425
UWE-3 17 Jan 09:21:40 09:26:02 89° 270° (W) 09:30:28 435.000/436.395/437.385
GONETS M04 17 Jan 09:23:23 09:31:03 35° 275° (W) 09:38:46
RS-15 17 Jan 09:26:48 09:39:08 65° 54° (NE) 09:50:55 29.354- 29.394
FUNcube-1 17 Jan 09:28:03 09:32:20 57° 100° (E) 09:36:42 145.935
AAUSAT CUBESAT 2 17 Jan 09:29:23 09:33:28 52° 286° (WNW) 09:37:31 437.432
TIGRISAT 17 Jan 09:35:42 09:39:32 34° 71° (ENE) 09:43:22 435.000
DELFI C3 17 Jan 09:44:31 09:47:48 24° 96° (E) 09:51:03 145.870
ZACube-1 17 Jan 09:48:55 09:53:15 74° 284° (WNW) 09:57:41 437.345
ANTELSAT 17 Jan 09:49:36 09:53:46 52° 74° (ENE) 09:57:54 437.575/2403.000
JAS-2 17 Jan 09:49:56 09:53:35 19° 62° (ENE) 09:57:25 435.910
CUTE 1.7 + AOD 2 17 Jan 09:52:19 09:53:35 11° 296° (WNW) 09:54:50 437.475
PRISM 17 Jan 10:05:27 10:08:53 25° 264° (W) 10:12:20 437.425
CUBEBUG 2 17 Jan 10:24:01 10:25:46 12° 295° (WNW) 10:27:33 437.445
POPSAT HIP 1 17 Jan 10:27:09 10:28:49 12° 65° (ENE) 10:30:29 437.405
HO-68 17 Jan 10:31:13 10:35:22 17° 304° (NW) 10:39:30 435.675
HUMSAT D 17 Jan 10:32:31 10:36:41 50° 99° (E) 10:40:51 437.325/437.525
Oscar 11 17 Jan 10:32:50 10:36:34 28° 290° (WNW) 10:40:18 145.826/435.025
DUCHIFAT 1 17 Jan 10:41:44 10:44:11 15° 66° (ENE) 10:46:39 145.980
NANOSAT C BR1 17 Jan 10:44:50 10:47:44 18° 67° (ENE) 10:50:37 145.865
SO-50 17 Jan 10:52:33 10:55:14 15° 316° (NW) 10:57:55 436.795
PCSat 17 Jan 10:57:49 11:03:05 49° 58° (ENE) 11:08:19 145.827
UNISAT 6 17 Jan 10:58:14 11:01:42 24° 264° (W) 11:05:10 437.425
FUNcube-1 17 Jan 11:06:17 11:08:05 12° 295° (WNW) 11:09:53 145.935
TIGRISAT 17 Jan 11:13:23 11:16:18 18° 266° (W) 11:19:12 435.000
DELFI C3 17 Jan 11:19:21 11:22:29 22° 291° (WNW) 11:25:35 145.870
ANTELSAT 17 Jan 11:29:23 11:30:45 11° 269° (W) 11:32:08 437.575/2403.000
BUGSAT 1 17 Jan 11:30:39 11:33:33 19° 68° (ENE) 11:36:27 437.445
BY70-1 17 Jan 11:32:59 11:36:22 65° 101° (E) 11:39:34 436.1900
JAS-2 17 Jan 11:33:11 11:38:12 49° 261° (W) 11:43:36 435.910
QB50P1 17 Jan 11:33:20 11:37:31 74° 75° (ENE) 11:41:42 145.935-145.965
POLYITAN 1 17 Jan 11:36:19 11:40:30 81° 74° (ENE) 11:44:42 437.675
QB50P2 17 Jan 11:37:24 11:41:36 90° 131° (SE) 11:45:50 145.880/145.840
RS-15 17 Jan 11:40:17 11:50:49 36° 255° (WSW) 12:01:01 29.354- 29.394
CUBEBUG 1 17 Jan 11:48:55 11:52:27 24° 96° (E) 11:55:57 437.445
SPROUT 17 Jan 11:51:27 11:52:04 10° 91° (E) 11:52:40 437.525
AISAT 17 Jan 11:56:08 11:59:14 19° 94° (E) 12:02:18 437.250
POPSAT HIP 1 17 Jan 12:00:00 12:04:06 53° 260° (W) 12:08:13 437.405
ESTCUBE 1 17 Jan 12:01:53 12:06:23 62° 101° (E) 12:10:51 437.505/2401.250
HUMSAT D 17 Jan 12:09:45 12:11:50 13° 295° (WNW) 12:13:56 437.325/437.525
DUCHIFAT 1 17 Jan 12:15:35 12:19:31 40° 261° (W) 12:23:27 145.980
NANOSAT C BR1 17 Jan 12:19:24 12:23:11 33° 262° (W) 12:26:59 145.865
Gurwin Techsat 1B 17 Jan 12:24:29 12:26:44 13° 61° (ENE) 12:28:59 435.225
VELOX 1 17 Jan 12:28:53 12:33:04 41° 99° (E) 12:37:12 145.980
Oscar 19 17 Jan 12:36:12 12:40:42 31° 68° (ENE) 12:45:13 437.125/150
PCSat 17 Jan 12:42:06 12:46:04 21° 254° (WSW) 12:50:01 145.827
50 SAT 17 Jan 13:04:55 13:08:30 84° 283° (WNW) 13:12:02 437.505
BUGSAT 1 17 Jan 13:05:06 13:08:42 30° 263° (W) 13:12:18 437.445
DX 1 17 Jan 13:12:43 13:17:01 61° 101° (E) 13:21:17 434.975-435.025
CUSAT 1 17 Jan 13:18:56 13:22:27 13° 60° (ENE) 13:25:56 437.405
UKube-1 17 Jan 13:18:59 13:23:11 51° 100° (E) 13:27:22 .
SPROUT 17 Jan 13:24:09 13:28:19 58° 285° (WNW) 13:32:29 437.525
CUBEBUG 1 17 Jan 13:25:03 13:28:39 26° 291° (WNW) 13:32:14 437.445
TISAT 1 17 Jan 13:29:48 13:32:49 19° 95° (E) 13:35:51 437.305
AISAT 17 Jan 13:31:47 13:35:46 34° 289° (WNW) 13:39:43 437.250
Cosmos 2491 17 Jan 13:36:48 13:45:12 47° 76° (ENE) 13:53:33 435.465 / 435.565
ESTCUBE 1 17 Jan 13:40:45 13:42:37 12° 297° (WNW) 13:44:29 437.505/2401.250
YUBILEINY 17 Jan 13:44:33 13:50:46 22° 80° (E) 13:57:00 435.215
AIST 1 17 Jan 13:52:42 13:55:18 16° 86° (E) 13:57:54
Gurwin Techsat 1B 17 Jan 14:00:39 14:05:57 80° 256° (WSW) 14:11:18 435.225
VELOX 1 17 Jan 14:06:23 14:09:09 17° 294° (WNW) 14:11:55 145.980
SWISSCUBE 17 Jan 14:08:14 14:09:51 12° 91° (E) 14:11:27 437.505
AO-7 17 Jan 14:11:59 14:19:08 33° 60° (ENE) 14:26:18 29.400- 29.500
Oscar 19 17 Jan 14:15:27 14:19:56 30° 264° (W) 14:24:28 437.125/150
ITAMSAT 1 17 Jan 14:49:55 14:55:00 61° 73° (ENE) 15:00:06 435.822/435.867
DX 1 17 Jan 14:51:12 14:52:39 11° 297° (WNW) 14:54:05 434.975-435.025
AO-85 17 Jan 14:52:47 14:57:30 56° 117° (ESE) 15:01:53 145.980
UKube-1 17 Jan 14:56:41 14:58:45 13° 296° (WNW) 15:00:49 .
CUSAT 1 17 Jan 14:57:50 15:05:48 68° 79° (ENE) 15:13:19 437.405
TISAT 1 17 Jan 15:04:49 15:08:28 30° 289° (WNW) 15:12:07 437.305
ITUPSAT 1 17 Jan 15:05:08 15:09:42 42° 99° (E) 15:14:15 437.325
Cosmos 2504 17 Jan 15:11:03 15:19:15 45° 89° (E) 15:27:02 435.465 / 435.565
DANDE 17 Jan 15:13:05 15:19:58 36° 74° (ENE) 15:27:25 436.750
BRITE-PL 17 Jan 15:18:04 15:19:05 10° 60° (ENE) 15:20:05 437.365/2234.400
AIST 1 17 Jan 15:28:27 15:32:32 38° 282° (WNW) 15:36:37
Cosmos 2491 17 Jan 15:34:04 15:41:44 36° 274° (W) 15:49:26 435.465 / 435.565
YUBILEINY 17 Jan 15:37:49 15:46:35 72° 278° (W) 15:55:28 435.215
BEESAT 17 Jan 15:41:58 15:46:46 77° 285° (WNW) 15:51:32 436.000
SWISSCUBE 17 Jan 15:43:16 15:48:02 66° 286° (WNW) 15:52:46 437.505
AO-7 17 Jan 16:03:21 16:11:28 55° 257° (WSW) 16:19:40 29.400- 29.500
M-CUBED/EXP-1 PRIME 17 Jan 16:06:56 16:09:03 16° 99° (E) 16:11:08 437.505
MOZHAYETS 4 17 Jan 16:07:37 16:12:14 60° 101° (E) 16:16:48
JUGNU 17 Jan 16:28:31 16:30:32 12° 173° (S) 16:32:34 437.505
ITAMSAT 1 17 Jan 16:32:07 16:34:50 14° 268° (W) 16:37:34 435.822/435.867
BEESAT 3 17 Jan 16:32:52 16:35:02 15° 109° (ESE) 16:37:13 437.485
AO-85 17 Jan 16:35:07 16:38:10 17° 312° (NW) 16:41:06 145.980
STARS 17 Jan 16:39:24 16:42:14 17° 94° (E) 16:45:04 437.465
CUSAT 1 17 Jan 16:40:58 16:47:00 25° 276° (W) 16:52:49 437.405
NOAA 15 17 Jan 16:42:17 16:44:21 12° 60° (ENE) 16:46:24 137.62
ITUPSAT 1 17 Jan 16:43:48 16:47:11 19° 294° (WNW) 16:50:35 437.325
CUBESAT XI-V 17 Jan 16:44:58 16:48:36 22° 94° (E) 16:52:10 437.345
AUBIESAT-1 17 Jan 16:45:38 16:48:51 42° 104° (ESE) 16:51:59 437.475
BRITE-PL 17 Jan 16:50:55 16:56:33 76° 76° (ENE) 17:02:15 437.365/2234.400
DANDE 17 Jan 16:55:27 17:02:46 50° 268° (W) 17:10:43 436.750
O/OREOS (USA 219) 17 Jan 17:01:40 17:05:53 38° 64° (ENE) 17:10:06 437.305
Cosmos 2504 17 Jan 17:04:43 17:12:38 37° 285° (WNW) 17:20:14 435.465 / 435.565
BEESAT 2 17 Jan 17:09:57 17:12:24 16° 110° (ESE) 17:14:53 435.950
KKS-1 17 Jan 17:11:51 17:16:18 87° 285° (WNW) 17:20:43 437.445
GOMX 1 17 Jan 17:12:36 17:17:53 52° 73° (ENE) 17:23:00 467.674
CUTE-I 17 Jan 17:16:25 17:20:39 25° 66° (ENE) 17:24:53 437.470
HORYU 2 17 Jan 17:17:58 17:22:21 69° 75° (ENE) 17:26:45 437.375
NOAA 18 17 Jan 17:36:02 17:40:11 22° 64° (ENE) 17:44:19 137.9125
M-CUBED/EXP-1 PRIME 17 Jan 17:40:51 17:43:33 22° 295° (WNW) 17:46:11 437.505
YUBILEINY 17 Jan 17:41:26 17:45:06 13° 300° (WNW) 17:48:45 435.215
SO-50 17 Jan 17:42:48 17:47:02 39° 53° (NE) 17:51:13 436.795
MOZHAYETS 4 17 Jan 17:46:40 17:48:50 13° 296° (WNW) 17:51:00
Cubesat XI-IV 17 Jan 17:57:19 18:02:31 59° 73° (ENE) 18:07:45 437.490
BEESAT 3 17 Jan 18:08:36 18:12:16 40° 305° (NW) 18:16:00 437.485
DOVE 4 17 Jan 18:08:48 18:13:55 75° 76° (ENE) 18:18:47 437.250
LilacSat-2 17 Jan 18:12:09 18:15:54 85° 262° (W) 18:19:42 437.200
STARS 17 Jan 18:14:40 18:18:43 38° 288° (WNW) 18:22:44 437.465
JUGNU 17 Jan 18:16:14 18:18:40 13° 184° (S) 18:21:07 437.505
NOAA 15 17 Jan 18:18:05 18:23:22 83° 258° (WSW) 18:28:42 137.62
CUBESAT XI-V 17 Jan 18:21:46 18:25:59 34° 290° (WNW) 18:30:11 437.345
CINEMA 3 17 Jan 18:25:50 18:29:25 24° 70° (ENE) 18:32:53 145.822/145.860
BRITE-PL 17 Jan 18:32:47 18:35:30 14° 271° (W) 18:38:16 437.365/2234.400
O/OREOS (USA 219) 17 Jan 18:41:58 18:44:57 18° 260° (W) 18:47:56 437.305
BEESAT 2 17 Jan 18:46:11 18:49:51 37° 305° (NW) 18:53:36 435.950
STRAND 1 17 Jan 18:49:18 18:51:31 13° 91° (E) 18:53:43 437.568
GOMX 1 17 Jan 18:52:20 18:56:06 19° 267° (W) 18:59:51 467.674
CUTE-I 17 Jan 18:55:31 19:00:27 39° 262° (W) 19:05:23 437.470
CUTE 1.7 + AOD 2 17 Jan 19:04:54 19:08:43 34° 72° (ENE) 19:12:34 437.475
HO-68 17 Jan 19:07:36 19:14:37 58° 69° (ENE) 19:21:37 435.675
NOAA 18 17 Jan 19:15:12 19:20:29 47° 260° (W) 19:25:47 137.9125
SO-50 17 Jan 19:23:56 19:27:12 20° 250° (WSW) 19:30:26 436.795
CANX-2 17 Jan 19:32:57 19:37:11 87° 78° (ENE) 19:41:28 2200.000
Cosmos 2499 17 Jan 19:34:15 19:41:35 33° 87° (E) 19:48:32 435.465 / 435.565
SRMSAT 17 Jan 19:39:19 19:41:55 13° 177° (S) 19:44:31 437.500
Cubesat XI-IV 17 Jan 19:39:50 19:42:56 16° 268° (W) 19:46:03 437.490
CUBEBUG 2 17 Jan 19:41:59 19:45:49 35° 72° (ENE) 19:49:36 437.445
DOVE 4 17 Jan 19:50:35 19:51:57 11° 269° (W) 19:53:18 437.250
SEEDS 17 Jan 19:50:52 19:55:04 79° 78° (ENE) 19:59:19 437.485
Oscar 11 17 Jan 19:51:06 19:53:30 15° 66° (ENE) 19:55:54 145.826/435.025
COMPASS 1 17 Jan 20:02:32 20:06:40 69° 76° (ENE) 20:10:52 437.405
CINEMA 3 17 Jan 20:02:32 20:06:26 28° 263° (W) 20:10:12 145.822/145.860
AIST 2 17 Jan 20:15:20 20:19:01 33° 114° (ESE) 20:22:46 435.215
UWE-3 17 Jan 20:16:54 20:20:58 56° 75° (ENE) 20:25:01 435.000/436.395/437.385
AAUSAT CUBESAT 2 17 Jan 20:17:08 20:21:16 78° 76° (ENE) 20:25:28 437.432
FUNcube-1 17 Jan 20:22:04 20:25:46 33° 72° (ENE) 20:29:29 145.935
GONETS M04 17 Jan 20:24:37 20:33:03 58° 90° (E) 20:41:32
STRAND 1 17 Jan 20:26:01 20:31:08 68° 286° (WNW) 20:36:14 437.568
DELFI C3 17 Jan 20:30:04 20:31:35 12° 65° (ENE) 20:33:07 145.870
CUTE 1.7 + AOD 2 17 Jan 20:41:43 20:44:38 18° 267° (W) 20:47:33 437.475
ZACube-1 17 Jan 20:42:50 20:46:56 66° 75° (ENE) 20:51:02 437.345
HO-68 17 Jan 20:56:58 21:02:38 25° 266° (W) 21:08:22 435.675
CUBEBUG 2 17 Jan 21:19:54 21:22:32 16° 267° (W) 21:25:10 437.445
HUMSAT D 17 Jan 21:22:18 21:25:43 26° 70° (ENE) 21:29:10 437.325/437.525
Oscar 11 17 Jan 21:25:06 21:29:13 45° 261° (W) 21:33:23 145.826/435.025
Cosmos 2499 17 Jan 21:26:14 21:34:26 48° 282° (WNW) 21:42:08 435.465 / 435.565
SRMSAT 17 Jan 21:28:21 21:30:13 11° 188° (S) 21:32:05 437.500
ANTELSAT 17 Jan 21:44:22 21:46:22 13° 92° (E) 21:48:24 437.575/2403.000
PRISM 17 Jan 21:47:44 21:51:43 47° 100° (E) 21:55:40 437.425
AIST 2 17 Jan 21:54:19 21:57:33 22° 311° (NW) 22:00:50 435.215
FUNcube-1 17 Jan 21:59:23 22:02:05 17° 267° (W) 22:04:48 145.935
DELFI C3 17 Jan 22:02:03 22:05:55 49° 260° (W) 22:09:51 145.870
GONETS M04 17 Jan 22:23:03 22:30:17 29° 290° (WNW) 22:37:36
JAS-2 17 Jan 22:42:32 22:48:31 27° 95° (E) 22:54:49 435.910
ISS 17 Jan 22:42:35 22:44:55 18° 130° (SE) 22:47:15 145.825
CUBEBUG 1 17 Jan 22:43:41 22:46:38 18° 66° (ENE) 22:49:33 437.445
UNISAT 6 17 Jan 22:50:08 22:54:33 75° 101° (ESE) 22:59:04 437.425
AISAT 17 Jan 22:52:31 22:54:57 15° 65° (ENE) 22:57:24 437.250
HUMSAT D 17 Jan 22:58:08 23:01:17 21° 265° (W) 23:04:27 437.325/437.525
ESTCUBE 1 17 Jan 22:59:25 23:03:43 45° 72° (ENE) 23:08:03 437.505/2401.250
TIGRISAT 17 Jan 23:04:28 23:08:53 82° 283° (WNW) 23:13:23 435.000
BY70-1 17 Jan 23:16:37 23:19:17 37° 262° (W) 23:22:12 436.1900
ANTELSAT 17 Jan 23:19:01 23:23:20 52° 286° (WNW) 23:27:42 437.575/2403.000
QB50P1 17 Jan 23:21:19 23:23:24 13° 92° (E) 23:25:28 145.935-145.965
POLYITAN 1 17 Jan 23:24:11 23:26:36 15° 93° (E) 23:29:00 437.675
VELOX 1 17 Jan 23:24:25 23:28:18 30° 70° (ENE) 23:32:11 145.980
PRISM 17 Jan 23:24:40 23:26:33 13° 295° (WNW) 23:28:27 437.425
QB50P2 17 Jan 23:25:05 23:27:46 16° 94° (E) 23:30:27 145.880/145.840
AO-85 17 Jan 23:26:22 23:29:39 25° 51° (NE) 23:32:55 145.980
50 SAT 17 Jan 23:38:02 23:41:05 27° 71° (ENE) 23:44:08 437.505
POPSAT HIP 1 17 Jan 23:46:40 23:50:14 26° 96° (E) 23:53:47 437.405
RS-15 17 Jan 23:47:13 23:58:13 49° 108° (ESE) 00:09:40 29.354- 29.394
DUCHIFAT 1 18 Jan 00:01:08 00:04:57 33° 98° (E) 00:08:43 145.980
NANOSAT C BR1 18 Jan 00:04:56 00:08:55 40° 99° (E) 00:12:53 145.865
DX 1 18 Jan 00:06:17 00:10:24 42° 72° (ENE) 00:14:32 434.975-435.025
UKube-1 18 Jan 00:11:40 00:15:34 34° 71° (ENE) 00:19:30 .
SPROUT 18 Jan 00:15:16 00:19:32 82° 77° (ENE) 00:23:48 437.525
ISS 18 Jan 00:18:06 00:21:11 39° 326° (NW) 00:24:16 145.825
CUBEBUG 1 18 Jan 00:18:26 00:22:35 39° 262° (W) 00:26:44 437.445
TISAT 1 18 Jan 00:21:04 00:22:48 12° 65° (ENE) 00:24:33 437.305
AISAT 18 Jan 00:26:39 00:30:59 49° 260° (W) 00:35:18 437.250
JAS-2 18 Jan 00:26:46 00:33:40 57° 288° (WNW) 00:41:10 435.910
ESTCUBE 1 18 Jan 00:38:02 00:40:43 15° 267° (W) 00:43:25 437.505/2401.250
BUGSAT 1 18 Jan 00:47:57 00:51:44 39° 99° (E) 00:55:32 437.445
Oscar 19 18 Jan 00:51:34 00:53:16 11° 90° (E) 00:54:58 437.125/150
QB50P1 18 Jan 00:55:21 00:59:22 44° 287° (WNW) 01:03:23 145.935-145.965
POLYITAN 1 18 Jan 00:58:34 01:02:32 40° 287° (WNW) 01:06:31 437.675
QB50P2 18 Jan 00:59:47 01:03:40 37° 288° (WNW) 01:07:33 145.880/145.840
VELOX 1 18 Jan 01:01:15 01:04:44 22° 265° (W) 01:08:13 145.980
AO-85 18 Jan 01:06:48 01:09:56 23° 247° (WSW) 01:13:05 145.980
Cosmos 2504 18 Jan 01:09:56 01:11:40 11° 61° (ENE) 01:13:24 435.465 / 435.565
50 SAT 18 Jan 01:12:06 01:14:18 15° 266° (W) 01:16:30 437.505
BEESAT 18 Jan 01:13:16 01:14:02 10° 61° (ENE) 01:14:47 436.000
SWISSCUBE 18 Jan 01:13:27 01:15:16 12° 62° (ENE) 01:17:04 437.505
